This demonstration page uses our WeatherBlox Daily Observations layout. Learn more.

Left ArrowRight Arrow

38.88101, -77.10428

Hourly Observations for July 16, 2021

Temp ( °F °C ) Dew Point ( °F °C ) Humidity (%) Winds ( mph kmh ) Pressure ( in mb ) Visibility ( mi km ) Precip ( " mm )
12:52 am 00:52 Cloudy 82 27.8 68 20 63 63 WNW 3 6 30.03 1017 10 16 N/A
1:52 am 01:52 Cloudy 81 27.2 67 19.4 62 62 W 7 11 30.03 1017 10 16 N/A
2:52 am 02:52 Cloudy 81 27.2 67 19.4 62 62 N N/A 30.02 1017 10 16 N/A
3:52 am 03:52 Mostly Cloudy 80 26.7 68 20 67 67 N N/A 30.02 1017 10 16 N/A
4:52 am 04:52 Mostly Cloudy 79 26.1 68 20 69 69 S 3 6 30.03 1017 10 16 N/A
5:52 am 05:52 Partly Cloudy 78 25.6 68 20 71 71 SW 3 6 30.04 1017 10 16 N/A
6:52 am 06:52 Partly Cloudy 78 25.6 69 20.6 74 74 N N/A 30.05 1018 10 16 N/A
7:52 am 07:52 Mostly Sunny 80 26.7 70 21.1 71 71 S 3 6 30.06 1018 10 16 N/A
8:52 am 08:52 Sunny 82 27.8 72 22.2 72 72 S 6 9 30.06 1018 10 16 N/A
9:52 am 09:52 Mostly Cloudy 85 29.4 72 22.2 65 65 SSE 5 7 30.06 1018 10 16 N/A
10:52 am 10:52 Partly Cloudy 91 32.8 68 20 47 47 NNE 6 9 30.06 1018 10 16 N/A
11:52 am 11:52 Partly Cloudy 92 33.3 68 20 46 46 NE 6 9 30.07 1018 10 16 N/A
12:52 pm 12:52 Partly Cloudy 92 33.3 67 19.4 44 44 ESE 5 7 30.06 1018 10 16 N/A
1:52 pm 13:52 Partly Cloudy 92 33.3 69 20.6 47 47 S 12 19 30.05 1018 10 16 N/A
2:52 pm 14:52 Partly Cloudy 91 32.8 68 20 47 47 S 10 17 30.03 1017 10 16 N/A
3:52 pm 15:52 Partly Cloudy 93 33.9 68 20 44 44 S 12 19 30.00 1016 10 16 N/A
4:52 pm 16:52 Partly Cloudy 92 33.3 67 19.4 44 44 S 13 20 29.99 1016 10 16 N/A
5:52 pm 17:52 Mostly Sunny 91 32.8 69 20.6 49 49 S 8 13 29.99 1016 10 16 N/A
6:52 pm 18:52 Mostly Sunny 90 32.2 71 21.7 54 54 S 16 26 29.99 1016 10 16 N/A
7:52 pm 19:52 Mostly Sunny 89 31.7 70 21.1 53 53 S 10 17 30.01 1016 10 16 N/A
8:52 pm 20:52 Mostly Clear 86 30 71 21.7 61 61 S 8 13 30.01 1016 10 16 N/A
9:52 pm 21:52 Mostly Clear 85 29.4 72 22.2 65 65 S 7 11 30.03 1017 10 16 N/A
10:52 pm 22:52 Mostly Clear 84 28.9 73 22.8 70 70 S 7 11 30.03 1017 10 16 N/A
11:52 pm 23:52 Mostly Cloudy 83 28.3 74 23.3 74 74 S 10 17 30.03 1017 10 16 N/A

Powered by AerisWeather